| time (UTC) | temp F | wind direction | speed MPH | gust MPH | rain 1hr in | rain 24hr in | rain mn in | humidity % | barometer mb |
| 20260502181415 | 65 | 148 | 0.0 | 1.0 | 0.00 | 0.00 | 0.00 | 47 | 1021.6 |
| 20260502180916 | 65 | 246 | 0.0 | 1.0 | 0.00 | 0.00 | 0.00 | 47 | 1021.7 |
| 20260502180416 | 65 | 183 | 0.0 | 1.0 | 0.00 | 0.00 | 0.00 | 47 | 1021.3 |
| 20260502170416 | 69 | 74 | 1.0 | 2.0 | 0.00 | 0.00 | 0.00 | 40 | 1021.3 |
| 20260502163915 | 71 | 204 | 0.0 | 2.0 | 0.00 | 0.00 | 0.00 | 39 | 1021.1 |
| 20260502162915 | 71 | 69 | 1.0 | 2.0 | 0.00 | 0.00 | 0.00 | 37 | 1021.3 |
| 20260502162415 | 71 | 258 | 0.0 | 2.0 | 0.00 | 0.00 | 0.00 | 37 | 1021.3 |
| 20260502161915 | 71 | 154 | 0.0 | 3.0 | 0.00 | 0.00 | 0.00 | 37 | 1021.3 |
| 20260502161420 | 71 | 92 | 0.0 | 3.0 | 0.00 | 0.00 | 0.00 | 37 | 1021.3 |
| 20260502160915 | 72 | 248 | 1.0 | 8.0 | 0.00 | 0.00 | 0.00 | 35 | 1021.3 |
| 20260502160416 | 72 | 234 | 2.0 | 8.0 | 0.00 | 0.00 | 0.00 | 35 | 1021.3 |
| 20260502151915 | 75 | 252 | 3.0 | 8.0 | 0.00 | 0.00 | 0.00 | 31 | 1021.7 |
| 20260502151415 | 76 | 251 | 5.0 | 7.0 | 0.00 | 0.00 | 0.00 | 31 | 1021.6 |
| 20260502150915 | 77 | 254 | 2.0 | 9.0 | 0.00 | 0.00 | 0.00 | 30 | 1021.3 |
| 20260502150416 | 77 | 249 | 3.0 | 9.0 | 0.00 | 0.00 | 0.00 | 30 | 1021.7 |
| 20260502130416 | 75 | 245 | 3.0 | 9.0 | 0.00 | 0.00 | 0.00 | 30 | 1023.0 |
| 20260502123416 | 75 | 282 | 5.0 | 9.0 | 0.00 | 0.00 | 0.00 | 29 | 1023.4 |
| 20260502122916 | 74 | 231 | 4.0 | 9.0 | 0.00 | 0.00 | 0.00 | 30 | 1023.7 |
| 20260502122418 | 74 | 247 | 5.0 | 9.0 | 0.00 | 0.00 | 0.00 | 29 | 1023.7 |
| 20260502121915 | 74 | 232 | 5.0 | 9.0 | 0.00 | 0.00 | 0.00 | 29 | 1023.5 |
| 20260502121416 | 75 | 229 | 3.0 | 9.0 | 0.00 | 0.00 | 0.00 | 29 | 1023.7 |
| 20260502120916 | 74 | 242 | 3.0 | 9.0 | 0.00 | 0.00 | 0.00 | 29 | 1023.7 |
| 20260502120416 | 75 | 269 | 2.0 | 9.0 | 0.00 | 0.00 | 0.00 | 29 | 1024.0 |
| 20260502115415 | 74 | 257 | 3.0 | 9.0 | 0.00 | 0.00 | 0.00 | 29 | 1024.0 |
| 20260502114917 | 74 | 234 | 5.0 | 9.0 | 0.00 | 0.00 | 0.00 | 29 | 1024.0 |
| 20260502113915 | 74 | 259 | 3.0 | 8.0 | 0.00 | 0.00 | 0.00 | 29 | 1024.3 |
| 20260502112915 | 73 | 254 | 3.0 | 12.0 | 0.00 | 0.00 | 0.00 | 30 | 1024.2 |
| 20260502112415 | 74 | 271 | 5.0 | 9.0 | 0.00 | 0.00 | 0.00 | 30 | 1024.4 |
| 20260502111915 | 74 | 218 | 3.0 | 8.0 | 0.00 | 0.00 | 0.00 | 29 | 1024.4 |
| 20260502110916 | 73 | 261 | 3.0 | 7.0 | 0.00 | 0.00 | 0.00 | 30 | 1024.6 |
| 20260502110416 | 74 | 256 | 3.0 | 8.0 | 0.00 | 0.00 | 0.00 | 31 | 1024.4 |
| 20260502105916 | 73 | 255 | 3.0 | 8.0 | 0.00 | 0.00 | 0.00 | 31 | 1024.5 |
| 20260502105416 | 73 | 233 | 4.0 | 8.0 | 0.00 | 0.00 | 0.00 | 31 | 1024.9 |
| 20260502104915 | 73 | 239 | 4.0 | 7.0 | 0.00 | 0.00 | 0.00 | 31 | 1024.9 |
| 20260502104416 | 73 | 235 | 3.0 | 8.0 | 0.00 | 0.00 | 0.00 | 31 | 1025.1 |
| 20260502103915 | 73 | 227 | 2.0 | 8.0 | 0.00 | 0.00 | 0.00 | 31 | 1025.1 |
| 20260502103415 | 72 | 242 | 2.0 | 8.0 | 0.00 | 0.00 | 0.00 | 31 | 1025.1 |
| 20260502101916 | 71 | 252 | 3.0 | 7.0 | 0.00 | 0.00 | 0.00 | 32 | 1025.6 |
| 20260502100916 | 71 | 262 | 2.0 | 5.0 | 0.00 | 0.00 | 0.00 | 32 | 1025.7 |
| 20260502100416 | 71 | 235 | 1.0 | 3.0 | 0.00 | 0.00 | 0.00 | 35 | 1025.8 |
| 20260502091417 | 65 | 53 | 1.0 | 2.0 | 0.00 | 0.00 | 0.00 | 45 | 1027.0 |
| 20260502090915 | 65 | 279 | 0.0 | 2.0 | 0.00 | 0.00 | 0.00 | 45 | 1026.8 |
| 20260502090417 | 65 | 31 | 0.0 | 2.0 | 0.00 | 0.00 | 0.00 | 45 | 1027.1 |
| 20260502071415 | 57 | 57 | 1.0 | 3.0 | 0.00 | 0.00 | 0.00 | 57 | 1028.8 |
| 20260502070916 | 57 | 18 | 1.0 | 3.0 | 0.00 | 0.00 | 0.00 | 57 | 1028.8 |
| 20260502070415 | 57 | 55 | 0.0 | 3.0 | 0.00 | 0.00 | 0.00 | 58 | 1028.9 |
| 20260502065916 | 56 | 42 | 1.0 | 3.0 | 0.00 | 0.00 | 0.00 | 59 | 1028.8 |
| 20260502065415 | 56 | 79 | 2.0 | 3.0 | 0.00 | 0.00 | 0.00 | 59 | 1029.1 |
| 20260502064915 | 55 | 38 | 1.0 | 3.0 | 0.00 | 0.00 | 0.00 | 60 | 1028.8 |
| 20260502064416 | 55 | 29 | 2.0 | 3.0 | 0.00 | 0.00 | 0.00 | 61 | 1029.1 |
| 20260502063915 | 55 | 350 | 0.0 | 3.0 | 0.00 | 0.00 | 0.00 | 61 | 1029.1 |
| 20260502063415 | 55 | 73 | 1.0 | 2.0 | 0.00 | 0.00 | 0.00 | 61 | 1029.1 |
| 20260502062915 | 54 | 42 | 1.0 | 2.0 | 0.00 | 0.00 | 0.00 | 61 | 1029.0 |
| 20260502061915 | 54 | 50 | 0.0 | 2.0 | 0.00 | 0.00 | 0.00 | 63 | 1029.1 |
| 20260502061416 | 53 | 47 | 0.0 | 2.0 | 0.00 | 0.00 | 0.00 | 64 | 1029.1 |
| 20260502060916 | 53 | 40 | 0.0 | 1.0 | 0.00 | 0.00 | 0.00 | 65 | 1029.1 |
| 20260502060415 | 53 | 226 | 1.0 | 3.0 | 0.00 | 0.00 | 0.00 | 65 | 1029.1 |
| 20260502055916 | 52 | 50 | 0.0 | 3.0 | 0.00 | 0.00 | 0.00 | 66 | 1029.1 |
| 20260502055416 | 52 | 48 | 1.0 | 7.0 | 0.00 | 0.00 | 0.00 | 67 | 1029.2 |
| 20260502054917 | 51 | 62 | 1.0 | 8.0 | 0.00 | 0.00 | 0.00 | 67 | 1029.5 |
| 20260502054416 | 51 | 58 | 1.0 | 8.0 | 0.00 | 0.00 | 0.00 | 67 | 1029.5 |
| 20260502053917 | 51 | 56 | 5.0 | 8.0 | 0.00 | 0.00 | 0.00 | 67 | 1029.5 |
| 20260502053416 | 51 | 66 | 1.0 | 7.0 | 0.00 | 0.00 | 0.00 | 68 | 1029.2 |
| 20260502052918 | 51 | 72 | 2.0 | 7.0 | 0.00 | 0.00 | 0.00 | 67 | 1029.5 |
| 20260502052419 | 51 | 53 | 1.0 | 2.0 | 0.00 | 0.00 | 0.00 | 66 | 1029.5 |
| 20260502051916 | 51 | 66 | 0.0 | 1.0 | 0.00 | 0.00 | 0.00 | 69 | 1029.3 |
| 20260502051416 | 50 | 52 | 0.0 | 1.0 | 0.00 | 0.00 | 0.00 | 69 | 1029.1 |
| 20260502050917 | 50 | 66 | 0.0 | 1.0 | 0.00 | 0.00 | 0.00 | 69 | 1029.5 |
| 20260502050416 | 50 | 358 | 1.0 | 1.0 | 0.00 | 0.00 | 0.00 | 69 | 1029.5 |
| 20260502045915 | 50 | 34 | 0.0 | 2.0 | 0.00 | 0.00 | 0.00 | 69 | 1029.7 |
| 20260502045415 | 49 | 8 | 0.0 | 2.0 | 0.00 | 0.00 | 0.00 | 71 | 1029.7 |
| 20260502044916 | 49 | 253 | 1.0 | 2.0 | 0.00 | 0.00 | 0.00 | 70 | 1029.8 |
| 20260502044416 | 49 | 249 | 1.0 | 2.0 | 0.00 | 0.00 | 0.00 | 71 | 1029.5 |
| 20260502042916 | 49 | 248 | 1.0 | 1.0 | 0.00 | 0.00 | 0.00 | 71 | 1029.1 |
| 20260502042415 | 49 | 259 | 1.0 | 2.0 | 0.00 | 0.00 | 0.00 | 70 | 1029.1 |
| 20260502041917 | 49 | 78 | 0.0 | 2.0 | 0.00 | 0.00 | 0.00 | 71 | 1029.1 |
| 20260502041416 | 49 | 244 | 1.0 | 2.0 | 0.00 | 0.00 | 0.00 | 70 | 1029.2 |
| 20260502040916 | 48 | 222 | 0.0 | 1.0 | 0.00 | 0.00 | 0.00 | 71 | 1029.2 |
| 20260502035916 | 49 | 144 | 0.0 | 1.0 | 0.00 | 0.00 | 0.00 | 71 | 1029.1 |
| 20260502035416 | 49 | 100 | 0.0 | 1.0 | 0.00 | 0.00 | 0.00 | 70 | 1029.1 |
| 20260502034916 | 49 | 61 | 1.0 | 1.0 | 0.00 | 0.00 | 0.00 | 71 | 1029.1 |
| 20260502034416 | 49 | 238 | 0.0 | 1.0 | 0.00 | 0.00 | 0.00 | 70 | 1029.1 |
| 20260502033916 | 49 | 179 | 0.0 | 2.0 | 0.00 | 0.00 | 0.00 | 69 | 1029.1 |
| 20260502033416 | 49 | 25 | 0.0 | 2.0 | 0.00 | 0.00 | 0.00 | 69 | 1029.1 |
| 20260502032916 | 49 | 58 | 0.0 | 2.0 | 0.00 | 0.00 | 0.00 | 69 | 1029.1 |
| 20260502032415 | 49 | 247 | 0.0 | 1.0 | 0.00 | 0.00 | 0.00 | 69 | 1029.1 |
| 20260502031918 | 49 | 53 | 0.0 | 1.0 | 0.00 | 0.00 | 0.00 | 70 | 1029.1 |
| 20260502030915 | 49 | 248 | 0.0 | 1.0 | 0.00 | 0.00 | 0.00 | 69 | 1029.1 |
| 20260502030416 | 49 | 255 | 0.0 | 1.0 | 0.00 | 0.00 | 0.00 | 69 | 1029.1 |
| 20260502025416 | 50 | 83 | 0.0 | 1.0 | 0.00 | 0.00 | 0.00 | 68 | 1029.1 |
| 20260502024916 | 49 | 251 | 0.0 | 1.0 | 0.00 | 0.00 | 0.00 | 68 | 1029.1 |
| 20260502024416 | 50 | 251 | 0.0 | 1.0 | 0.00 | 0.00 | 0.00 | 68 | 1029.1 |
| 20260502023917 | 50 | 220 | 0.0 | 0.0 | 0.00 | 0.00 | 0.00 | 67 | 1029.1 |
| 20260502023416 | 50 | 188 | 0.0 | 0.0 | 0.00 | 0.00 | 0.00 | 68 | 1029.1 |
| 20260502022916 | 50 | 243 | 0.0 | 0.0 | 0.00 | 0.00 | 0.00 | 68 | 1029.1 |
| 20260502022416 | 50 | 169 | 0.0 | 1.0 | 0.00 | 0.00 | 0.00 | 67 | 1029.1 |
| 20260502021916 | 50 | 116 | 0.0 | 1.0 | 0.00 | 0.00 | 0.00 | 67 | 1029.1 |
| 20260502021416 | 51 | 186 | 0.0 | 1.0 | 0.00 | 0.00 | 0.00 | 66 | 1029.1 |
| 20260502020916 | 51 | 152 | 0.0 | 2.0 | 0.00 | 0.00 | 0.00 | 65 | 1028.9 |
| 20260502020415 | 51 | 251 | 1.0 | 2.0 | 0.00 | 0.00 | 0.00 | 65 | 1029.1 |
| 20260502015918 | 50 | 246 | 1.0 | 2.0 | 0.00 | 0.00 | 0.00 | 65 | 1029.1 |
| 20260502014916 | 50 | 185 | 1.0 | 1.0 | 0.00 | 0.00 | 0.00 | 67 | 1029.1 |
| 20260502014416 | 50 | 256 | 0.0 | 1.0 | 0.00 | 0.00 | 0.00 | 67 | 1029.1 |
| 20260502013417 | 51 | 66 | 0.0 | 1.0 | 0.00 | 0.00 | 0.00 | 65 | 1029.0 |
| 20260502012916 | 51 | 66 | 0.0 | 1.0 | 0.00 | 0.00 | 0.00 | 65 | 1028.8 |
| 20260502012415 | 51 | 254 | 0.0 | 1.0 | 0.00 | 0.00 | 0.00 | 64 | 1029.1 |
| 20260502011916 | 51 | 250 | 0.0 | 1.0 | 0.00 | 0.00 | 0.00 | 65 | 1028.8 |
| 20260502011416 | 51 | 253 | 1.0 | 1.0 | 0.00 | 0.00 | 0.00 | 64 | 1028.8 |
| 20260502010917 | 51 | 256 | 0.0 | 1.0 | 0.00 | 0.00 | 0.00 | 65 | 1029.0 |
| 20260502010416 | 51 | 242 | 0.0 | 1.0 | 0.00 | 0.00 | 0.00 | 64 | 1029.0 |
| 20260502005916 | 51 | 51 | 0.0 | 1.0 | 0.00 | 0.00 | 0.00 | 63 | 1028.8 |
| 20260502005417 | 51 | 243 | 0.0 | 1.0 | 0.00 | 0.00 | 0.00 | 63 | 1028.9 |
| 20260502004915 | 51 | 240 | 0.0 | 1.0 | 0.00 | 0.00 | 0.00 | 63 | 1028.8 |
| 20260502004416 | 51 | 172 | 0.0 | 0.0 | 0.00 | 0.00 | 0.00 | 64 | 1029.1 |
| 20260502003915 | 51 | 79 | 0.0 | 0.0 | 0.00 | 0.00 | 0.00 | 64 | 1029.1 |
| 20260502003417 | 52 | 89 | 0.0 | 0.0 | 0.00 | 0.00 | 0.00 | 63 | 1029.1 |
| 20260502002918 | 52 | 93 | 0.0 | 0.0 | 0.00 | 0.00 | 0.00 | 62 | 1029.0 |
| 20260502002416 | 52 | 114 | 0.0 | 0.0 | 0.00 | 0.00 | 0.00 | 62 | 1028.9 |
| 20260502001915 | 51 | 107 | 0.0 | 1.0 | 0.00 | 0.00 | 0.00 | 62 | 1029.1 |
| 20260502000916 | 51 | 67 | 1.0 | 1.0 | 0.00 | 0.00 | 0.00 | 63 | 1029.1 |
| 20260502000417 | 51 | 253 | 0.0 | 1.0 | 0.00 | 0.00 | 0.00 | 62 | 1029.1 |
| 20260501235916 | 52 | 65 | 0.0 | 0.0 | 0.00 | 0.00 | 0.00 | 62 | 1029.1 |
| 20260501235416 | 52 | 72 | 0.0 | 0.0 | 0.00 | 0.00 | 0.00 | 61 | 1029.1 |
| 20260501234415 | 52 | 171 | 0.0 | 0.0 | 0.00 | 0.00 | 0.00 | 61 | 1029.0 |
| 20260501233916 | 52 | 167 | 0.0 | 0.0 | 0.00 | 0.00 | 0.00 | 61 | 1029.1 |
| 20260501233417 | 52 | 66 | 0.0 | 0.0 | 0.00 | 0.00 | 0.00 | 61 | 1028.9 |
| 20260501232915 | 52 | 67 | 0.0 | 0.0 | 0.00 | 0.00 | 0.00 | 61 | 1029.1 |
| 20260501232416 | 52 | 80 | 0.0 | 0.0 | 0.00 | 0.00 | 0.00 | 61 | 1029.1 |
| 20260501231916 | 52 | 78 | 0.0 | 0.0 | 0.00 | 0.00 | 0.00 | 60 | 1029.1 |
| 20260501231416 | 52 | 78 | 0.0 | 0.0 | 0.00 | 0.00 | 0.00 | 60 | 1028.8 |
| 20260501230917 | 53 | 168 | 0.0 | 0.0 | 0.00 | 0.00 | 0.00 | 60 | 1028.8 |
| 20260501230416 | 53 | 186 | 0.0 | 0.0 | 0.00 | 0.00 | 0.00 | 59 | 1028.9 |
| 20260501225916 | 53 | 205 | 0.0 | 0.0 | 0.00 | 0.00 | 0.00 | 59 | 1028.8 |
| 20260501224916 | 53 | 51 | 0.0 | 0.0 | 0.00 | 0.00 | 0.00 | 59 | 1028.8 |
| 20260501224418 | 53 | 57 | 0.0 | 0.0 | 0.00 | 0.00 | 0.00 | 59 | 1028.8 |
| 20260501223917 | 53 | 57 | 0.0 | 0.0 | 0.00 | 0.00 | 0.00 | 58 | 1028.8 |
| 20260501222916 | 53 | 59 | 0.0 | 1.0 | 0.00 | 0.00 | 0.00 | 56 | 1028.8 |
| 20260501222417 | 54 | 346 | 0.0 | 0.0 | 0.00 | 0.00 | 0.00 | 57 | 1028.8 |
| 20260501221916 | 54 | 345 | 0.0 | 0.0 | 0.00 | 0.00 | 0.00 | 57 | 1028.6 |
| 20260501221416 | 54 | 26 | 0.0 | 0.0 | 0.00 | 0.00 | 0.00 | 56 | 1028.4 |
| 20260501220918 | 54 | 42 | 0.0 | 0.0 | 0.00 | 0.00 | 0.00 | 56 | 1028.5 |
| 20260501220416 | 54 | 50 | 0.0 | 0.0 | 0.00 | 0.00 | 0.00 | 57 | 1028.4 |
| 20260501215916 | 54 | 41 | 0.0 | 1.0 | 0.00 | 0.00 | 0.00 | 56 | 1028.4 |
| 20260501215416 | 54 | 55 | 0.0 | 1.0 | 0.00 | 0.00 | 0.00 | 56 | 1028.4 |
| 20260501214916 | 54 | 95 | 0.0 | 0.0 | 0.00 | 0.00 | 0.00 | 56 | 1028.1 |
| 20260501214417 | 54 | 148 | 0.0 | 0.0 | 0.00 | 0.00 | 0.00 | 55 | 1028.4 |
| 20260501213916 | 55 | 218 | 0.0 | 1.0 | 0.00 | 0.00 | 0.00 | 56 | 1028.1 |
| 20260501213417 | 55 | 218 | 0.0 | 1.0 | 0.00 | 0.00 | 0.00 | 54 | 1028.4 |
| 20260501212916 | 55 | 222 | 0.0 | 1.0 | 0.00 | 0.00 | 0.00 | 54 | 1028.4 |
| 20260501212416 | 55 | 84 | 0.0 | 1.0 | 0.00 | 0.00 | 0.00 | 54 | 1028.2 |
| 20260501211916 | 55 | 75 | 0.0 | 1.0 | 0.00 | 0.00 | 0.00 | 54 | 1028.4 |
| 20260501211416 | 55 | 96 | 0.0 | 1.0 | 0.00 | 0.00 | 0.00 | 54 | 1027.8 |
| 20260501210916 | 55 | 215 | 0.0 | 0.0 | 0.00 | 0.00 | 0.00 | 53 | 1028.1 |
| 20260501210416 | 55 | 166 | 0.0 | 0.0 | 0.00 | 0.00 | 0.00 | 53 | 1028.1 |
| 20260501205416 | 56 | 126 | 0.0 | 0.0 | 0.00 | 0.00 | 0.00 | 52 | 1027.9 |
| 20260501204916 | 56 | 168 | 0.0 | 0.0 | 0.00 | 0.00 | 0.00 | 52 | 1028.0 |
| 20260501204416 | 56 | 153 | 0.0 | 0.0 | 0.00 | 0.00 | 0.00 | 52 | 1027.8 |
| 20260501203917 | 56 | 160 | 0.0 | 1.0 | 0.00 | 0.00 | 0.00 | 52 | 1027.8 |
| 20260501203416 | 56 | 49 | 0.0 | 1.0 | 0.00 | 0.00 | 0.00 | 53 | 1027.8 |
| 20260501202916 | 56 | 245 | 0.0 | 0.0 | 0.00 | 0.00 | 0.00 | 52 | 1027.8 |
| 20260501202417 | 56 | 213 | 0.0 | 0.0 | 0.00 | 0.00 | 0.00 | 52 | 1027.8 |
| 20260501201916 | 57 | 151 | 0.0 | 0.0 | 0.00 | 0.00 | 0.00 | 51 | 1027.8 |
| 20260501201416 | 57 | 185 | 0.0 | 0.0 | 0.00 | 0.00 | 0.00 | 50 | 1027.8 |
| 20260501200916 | 57 | 203 | 0.0 | 0.0 | 0.00 | 0.00 | 0.00 | 50 | 1027.8 |
| 20260501200417 | 57 | 175 | 0.0 | 1.0 | 0.00 | 0.00 | 0.00 | 51 | 1027.8 |
| 20260501195916 | 57 | 224 | 0.0 | 1.0 | 0.00 | 0.00 | 0.00 | 51 | 1027.5 |
| 20260501195416 | 57 | 244 | 0.0 | 1.0 | 0.00 | 0.00 | 0.00 | 51 | 1027.4 |
| 20260501193917 | 58 | 79 | 0.0 | 0.0 | 0.00 | 0.00 | 0.00 | 50 | 1027.2 |
| 20260501193416 | 58 | 122 | 0.0 | 0.0 | 0.00 | 0.00 | 0.00 | 50 | 1027.1 |
| 20260501192916 | 58 | 162 | 0.0 | 1.0 | 0.00 | 0.00 | 0.00 | 48 | 1027.1 |
| 20260501191916 | 58 | 75 | 0.0 | 1.0 | 0.00 | 0.00 | 0.00 | 48 | 1027.1 |
| 20260501191416 | 59 | 173 | 0.0 | 1.0 | 0.00 | 0.00 | 0.00 | 50 | 1027.1 |
| 20260501190916 | 58 | 198 | 0.0 | 1.0 | 0.00 | 0.00 | 0.00 | 48 | 1027.1 |
| 20260501190416 | 59 | 247 | 1.0 | 1.0 | 0.00 | 0.00 | 0.00 | 48 | 1026.9 |
| 20260501185917 | 59 | 92 | 0.0 | 1.0 | 0.00 | 0.00 | 0.00 | 47 | 1027.1 |
| 20260501185416 | 59 | 84 | 0.0 | 1.0 | 0.00 | 0.00 | 0.00 | 47 | 1026.8 |
| 20260501184916 | 60 | 72 | 1.0 | 1.0 | 0.00 | 0.00 | 0.00 | 46 | 1026.8 |
| 20260501184417 | 60 | 207 | 0.0 | 0.0 | 0.00 | 0.00 | 0.00 | 46 | 1026.8 |
| 20260501183915 | 61 | 70 | 0.0 | 1.0 | 0.00 | 0.00 | 0.00 | 46 | 1026.7 |
| 20260501183416 | 61 | 72 | 0.0 | 2.0 | 0.00 | 0.00 | 0.00 | 45 | 1026.4 |
| 20260501182916 | 61 | 207 | 0.0 | 2.0 | 0.00 | 0.00 | 0.00 | 43 | 1026.3 |
| 20260501182416 | 61 | 72 | 0.0 | 2.0 | 0.00 | 0.00 | 0.00 | 45 | 1026.3 |
| 20260501181916 | 62 | 72 | 1.0 | 2.0 | 0.00 | 0.00 | 0.00 | 45 | 1026.2 |